Location: Vinland
(47.7731°N, 122.6974°W)
Time: 14:06:58
(UTC+00:00)

Courier 1B - All Passes

Search period start: 30 March 2023 00:00
Search period end: 09 April 2023 00:00
Orbit: 962 x 1209 km, 28.3° (Epoch: 30 March)

Date Brightness Start Highest point End Pass type
(mag) Time Alt. Az. Time Alt. Az. Time Alt. Az.
30 Mar - 01:35:51 10° SW 01:39:19 14° S 01:42:41 10° SSE daylight
30 Mar - 22:49:04 10° SSW 22:52:58 15° S 22:56:49 10° SE daylight
31 Mar - 00:41:45 10° SW 00:45:47 15° S 00:49:43 10° SSE daylight
31 Mar - 21:55:56 10° SSW 21:59:24 14° SSE 22:02:50 10° SE daylight
31 Mar - 23:47:52 10° SW 23:52:14 16° S 23:56:30 10° SSE daylight
01 Apr - 01:42:51 10° SW 01:44:57 11° SSW 01:47:02 10° S daylight
01 Apr - 21:03:15 10° S 21:05:50 12° SSE 21:08:24 10° SE daylight
01 Apr - 22:54:09 10° SW 22:58:39 17° S 23:03:03 10° SE daylight
02 Apr - 00:48:04 10° SW 00:51:27 14° SSW 00:54:47 10° SSE daylight
02 Apr - 22:00:37 10° SSW 22:05:03 16° S 22:09:25 10° SE daylight
02 Apr - 23:53:48 10° SW 23:57:54 15° S 00:01:55 10° SSE daylight
03 Apr - 21:07:20 10° SSW 21:11:27 15° S 21:15:33 10° SE daylight
03 Apr - 22:59:48 10° SW 23:04:20 17° S 23:08:46 10° SSE daylight
04 Apr - 00:55:56 10° SSW 00:57:03 10° SSW 00:58:09 10° SSW daylight
04 Apr - 20:14:20 10° SSW 20:17:52 14° SSE 20:21:23 10° SE daylight
04 Apr - 22:06:01 10° SW 22:10:43 17° S 22:15:22 10° SE daylight
05 Apr - 00:00:26 10° SW 00:03:32 13° SSW 00:06:34 10° S daylight
05 Apr - 19:21:54 10° S 19:24:17 12° SSE 19:26:41 10° SE daylight
05 Apr - 21:12:25 10° SSW 21:17:06 17° S 21:21:46 10° SE daylight
05 Apr - 23:06:00 10° SW 23:09:58 15° SSW 23:13:53 10° SSE daylight
06 Apr - 20:19:01 10° SSW 20:23:29 16° S 20:27:58 10° SE daylight
06 Apr - 22:11:55 10° SW 22:16:22 16° S 22:20:48 10° SSE daylight
07 Apr - 19:25:53 10° SSW 19:29:53 15° SSE 19:33:55 10° SE daylight
07 Apr - 21:18:04 10° SW 21:22:45 17° S 21:27:27 10° SSE daylight
07 Apr - 23:13:11 10° SW 23:15:34 12° SSW 23:17:56 10° S daylight
08 Apr - 18:33:08 10° S 18:36:19 13° SSE 18:39:32 10° SE daylight
08 Apr - 20:24:25 10° SW 20:29:09 17° S 20:33:54 10° SE daylight
08 Apr - 22:18:26 10° SW 22:22:00 14° SSW 22:25:34 10° SSE daylight
